Weather in Samaykino

Russia / Ulyanovsk Oblast     53°17′00″N   47°48′55″E
temp.,
°C
wind,
m/s
gust,
m/s
humid.,
%
clouds,
%
prec.,
mm/h
press.,
hPa
HPBL,
m
4 march, thu
thu401:00−9w410910 0.0 1010211
04:00−10wsw410940 0.0 1009196
07:00−5wsw5129397 0.0 1007455
10:00−2wsw7128899 0.1 10051018
13:000wsw81488100 0.1 10021083
16:00+1wsw91588100 0.2 10011068
19:00+1wsw81589100 0.0 10011077
22:000wsw71491100 0.1 1001990
5 march, fri
fri501:00−2wsw5129299 0.0 1000481
04:00−2wsw4129199 0.0 1000409
07:00−2wsw41196100 0.1 1001495
10:00−2nne4694100 0.6 1003402
13:00−1nw3492100 0.1 1005563
16:00−1nnw3483100 0.6 1007710
19:00−7n119187 0.1 101021
22:00−9w119275 0.1 101221
6 march, sat
sat601:00−10w129296 0.0 101321
04:00−11wsw229397 0.0 101423
07:00−11w2295100 0.0 101441
10:00−8nw2492100 0.0 1014246
13:00−5nnw3684100 0.0 1014658
16:00−5nnw3580100 0.0 1013885
19:00−11nnw339190 0.0 101477
22:00−15nw239360 0.0 101558
7 march, sun
sun701:00−17wnw22930 0.0 101626
04:00−18w22940 0.0 101624
07:00−18wsw22940 0.0 101628
10:00−12sw479029 0.0 1016311
13:00−7sw7108797 0.1 1013876
16:00−5sw7128299 0.1 10101095
19:00−6sw71583100 0.0 1008976
22:00−6sw91691100 0.2 10041133
8 march, mon
mon801:00−5sw81688100 0.3 1001998
04:00−6w71384100 0.5 1002773
07:00−12wsw359188 0.0 100494
10:00−9ssw368151 0.0 1004241
13:00−5s478656 0.0 1002578
16:00−2wsw499079 1.1 1000989
19:00−8w9167295 0.3 10021066
22:00−10w7158666 0.3 1007759